EW1390 Weather Reports


Display with metric or nautical units.
time (UTC)temp
F
wind
direction
speed
MPH
gust
MPH
rain 1hr
in
rain 24hr
in
rain mn
in
humidity
%
barometer
mb
20260905151514 56 217 0.0 0.0 0.00 0.00 0.00 77 1007.1
20260905150020 55 217 0.0 0.0 0.00 0.00 0.00 77 1007.0
20260905144515 54 217 0.0 0.0 0.00 0.00 0.00 76 1007.1
20260905143015 54 217 0.0 0.0 0.00 0.00 0.00 75 1007.0
20260905141513 54 217 0.0 0.0 0.00 0.00 0.00 75 1007.0
20260905140009 54 217 0.0 0.0 0.00 0.00 0.00 75 1006.8
20260905134518 53 217 0.0 0.0 0.00 0.00 0.00 75 1006.7
20260905133010 53 217 0.0 0.0 0.00 0.00 0.00 75 1006.6
20260905131509 53 217 0.0 0.0 0.00 0.00 0.00 74 1006.4
20260905130006 53 217 0.0 0.0 0.00 0.00 0.00 73 1006.3
20260905124504 54 217 0.0 0.0 0.00 0.00 0.00 72 1006.5
20260905123007 54 217 0.0 0.0 0.00 0.00 0.00 72 1006.5
20260905121501 54 217 0.0 0.0 0.00 0.00 0.00 72 1006.5
20260905120001 54 217 0.0 0.0 0.00 0.00 0.00 72 1006.6
20260905114600 54 217 0.0 0.0 0.00 0.00 0.00 71 1006.5
20260905113106 54 217 0.0 1.0 0.00 0.00 0.00 71 1006.6
20260905111600 55 217 0.0 0.0 0.00 0.00 0.00 70 1006.7
20260905110055 55 217 0.0 0.0 0.00 0.00 0.00 70 1006.8
20260905104555 55 217 0.0 1.0 0.00 0.00 0.00 70 1006.8
20260905103100 54 217 0.0 0.0 0.00 0.00 0.00 70 1006.8
20260905101553 54 217 0.0 1.0 0.00 0.00 0.00 70 1006.8
20260905100100 54 217 0.0 0.0 0.00 0.00 0.00 70 1006.9
20260905094551 54 217 0.0 0.0 0.00 0.00 0.00 70 1006.8
20260905093050 54 217 0.0 0.0 0.00 0.00 0.00 69 1006.9
20260905091554 54 217 0.0 0.0 0.00 0.00 0.00 69 1007.0
20260905090046 55 217 0.0 0.0 0.00 0.00 0.00 68 1006.9
20260905084553 55 217 0.0 0.0 0.00 0.00 0.00 66 1006.9
20260905083040 56 217 0.0 0.0 0.00 0.00 0.00 66 1007.0
20260905081537 57 217 0.0 0.0 0.00 0.00 0.00 64 1006.9
20260905074533 59 217 0.0 0.0 0.00 0.00 0.00 63 1007.0
20260905073032 59 217 0.0 0.0 0.00 0.00 0.00 62 1006.9
20260905071531 59 217 0.0 0.0 0.00 0.00 0.00 62 1006.9
20260905070036 59 217 0.0 0.0 0.00 0.00 0.00 62 1006.9
20260905064526 60 217 0.0 0.0 0.00 0.00 0.00 60 1006.8
20260905063026 60 217 0.0 0.0 0.00 0.00 0.00 59 1006.7
20260905061526 61 217 0.0 0.0 0.00 0.00 0.00 58 1006.7
20260905060041 62 217 0.0 0.0 0.00 0.00 0.00 57 1006.7
20260905054525 62 217 0.0 0.0 0.00 0.00 0.00 58 1006.7
20260905053023 62 217 0.0 1.0 0.00 0.00 0.00 59 1006.9
20260905051525 62 217 0.0 0.0 0.00 0.00 0.00 60 1007.0
20260905050025 62 217 0.0 0.0 0.00 0.00 0.00 59 1006.9
20260905044523 62 217 0.0 0.0 0.00 0.00 0.00 59 1007.0
20260905043018 63 217 0.0 0.0 0.00 0.00 0.00 59 1006.8
20260905041516 63 217 0.0 0.0 0.00 0.00 0.00 59 1006.7
20260905040014 63 217 0.0 0.0 0.00 0.00 0.00 59 1006.5
20260905034516 63 217 0.0 0.0 0.00 0.00 0.00 59 1006.4
20260905033012 63 217 0.0 0.0 0.00 0.00 0.00 58 1006.2
20260905031512 63 217 0.0 0.0 0.00 0.00 0.00 57 1005.9
20260905030014 64 217 0.0 1.0 0.00 0.00 0.00 56 1005.9
20260905024512 65 217 0.0 1.0 0.00 0.00 0.00 54 1005.8
20260905023015 67 217 0.0 2.0 0.00 0.00 0.00 51 1005.8
20260905021520 68 217 0.0 0.0 0.00 0.00 0.00 48 1005.8
20260905020008 70 217 0.0 2.0 0.00 0.00 0.00 46 1005.7
20260905014509 71 217 0.0 3.0 0.00 0.00 0.00 44 1005.8
20260905013007 71 217 0.0 4.0 0.00 0.00 0.00 43 1005.7
20260905011507 72 215 0.0 4.0 0.00 0.00 0.00 41 1005.5
20260905010005 73 228 0.0 3.0 0.00 0.00 0.00 40 1005.5
20260905004504 74 257 0.0 7.0 0.00 0.00 0.00 39 1005.5
20260905003004 74 141 1.0 7.0 0.00 0.00 0.00 39 1005.5
20260905001503 75 237 1.0 5.0 0.00 0.00 0.00 38 1005.5
20260905000002 74 232 0.0 3.0 0.00 0.00 0.00 38 1005.5
20260904234501 76 234 2.0 5.0 0.00 0.00 0.00 35 1005.5
20260904233107 76 56 0.0 3.0 0.00 0.00 0.00 36 1005.5
20260904231557 74 217 1.0 6.0 0.00 0.00 0.00 36 1005.6
20260904230057 75 57 1.0 7.0 0.00 0.00 0.00 33 1005.7
20260904224554 74 257 2.0 9.0 0.00 0.00 0.00 34 1005.8
20260904223054 74 208 2.0 4.0 0.00 0.00 0.00 35 1005.8
20260904221554 74 240 2.0 6.0 0.00 0.00 0.00 36 1005.9
20260904220101 74 175 0.0 5.0 0.00 0.00 0.00 39 1005.9
20260904214545 74 224 1.0 5.0 0.00 0.00 0.00 45 1005.9
20260904213048 73 96 0.0 6.0 0.00 0.00 0.00 48 1006.0
20260904211541 72 250 0.0 8.0 0.00 0.00 0.00 50 1006.0
20260904210039 72 159 0.0 3.0 0.00 0.00 0.00 50 1006.0
20260904204536 70 280 0.0 6.0 0.00 0.00 0.00 52 1006.0
20260904203041 71 118 2.0 6.0 0.00 0.00 0.00 51 1006.1
20260904201536 70 229 0.0 5.0 0.00 0.00 0.00 54 1006.1
20260904200031 69 126 0.0 4.0 0.00 0.00 0.00 58 1006.0
20260904194527 68 193 1.0 4.0 0.00 0.00 0.00 59 1006.0
20260904193026 68 123 0.0 5.0 0.00 0.00 0.00 62 1006.2
20260904191525 67 204 0.0 3.0 0.00 0.00 0.00 63 1006.3
20260904190018 67 212 0.0 2.0 0.00 0.00 0.00 67 1006.3
20260904184515 66 209 0.0 4.0 0.00 0.00 0.00 69 1006.4
20260904183013 65 225 0.0 3.0 0.00 0.00 0.00 71 1006.4
20260904181513 64 225 2.0 4.0 0.00 0.00 0.00 73 1006.5
20260904180011 64 300 0.0 3.0 0.00 0.00 0.00 75 1006.4
20260904174517 63 298 1.0 3.0 0.00 0.00 0.00 78 1006.4
20260904173004 62 298 0.0 2.0 0.00 0.00 0.00 79 1006.3
20260904171502 62 298 0.0 3.0 0.00 0.00 0.00 79 1006.2
20260904170108 62 298 0.0 2.0 0.00 0.00 0.00 80 1006.1
20260904164604 62 299 0.0 1.0 0.00 0.00 0.00 81 1006.0
20260904163059 61 299 0.0 1.0 0.00 0.00 0.00 83 1006.0
20260904161604 60 231 0.0 3.0 0.00 0.00 0.00 84 1005.8
20260904160057 60 205 0.0 3.0 0.00 0.00 0.00 85 1006.0
20260904154556 60 205 0.0 2.0 0.00 0.00 0.00 85 1005.9
20260904153104 60 205 0.0 2.0 0.00 0.00 0.00 86 1005.8